Location: Newark
(54.4333°N, 18.5500°E)
Time: 14:19:00
(UTC+00:00)

Envisat - Pass Details

Date: 09 December 2019
Orbit: 764 x 766 km, 98.1° (Epoch: 17 January)

Event Time Altitude Azimuth Distance (km) Brightness Sun altitude
Rises 16:34:59 0° 168° (SSE) 3,224 6.3 -18.0°
Reaches altitude 10° 16:37:17 10° 170° (S) 2,302 5.5 -18.3°
Maximum altitude 16:42:21 75° 256° (WSW) 801 3.2 -19.0°
Drops below altitude 10° 16:47:29 10° 342° (NNW) 2,318 5.6 -19.7°
Sets 16:49:48 0° 344° (NNW) 3,249 6.3 -20.1°
